Location: Eaton
(41.3139°N, 82.0207°W)
Time: 07:53:29
(UTC+00:00)

Cosmos 2285 Rocket - Pass Details

Date: 30 October 2021
Orbit: 970 x 1000 km, 74.0° (Epoch: 01 December)

Event Time Altitude Azimuth Distance (km) Brightness Sun altitude
Rises 10:22:21 0° 353° (N) 3,726 6.9 -18.3°
Reaches altitude 10° 10:26:10 10° 15° (NNE) 2,776 6.5 -17.6°
Maximum altitude 10:29:52 16° 50° (NE) 2,387 6.6 -16.9°
Drops below altitude 10° 10:33:32 10° 86° (E) 2,770 7.7 -16.3°
Sets 10:37:19 0° 108° (ESE) 3,714 8.7 -15.5°
